Flag for U.S.A. Weather past 2 weeks in Chicago, Illinois, U.S.A.

Now
74 °F

Light rain. Mostly cloudy.


Feels Like: 71 °F
Forecast: 75 / 84 °F
Wind: 10 mph from Southwest

Location: Chicago Midway Airport

Current Time: Aug 22, 2014 at 5:42:05 AM

Latest Report: Aug 22, 2014 at 4:51 AM


Visibility: 10 mi

Pressure: 29.88 "Hg

Humidity: 94%

Dew point: 72 °F

Location of ChicagoLocation

Historic Weather in Chicago — Graph

°F

Chicago temperature yesterday

Maximum temperature yesterday: 82 °F (at 2:51 PM)
Minimum temperature yesterday: 72 °F (at 5:51 AM)
Average temperature yesterday: 76 °F

Past Weeks' High & Low Weather Summary

 TemperatureHumidityPressure
High87 °F (Aug 20, 3:51 PM)97% (Aug 21, 8:51 AM)30.09 "Hg (Aug 21, 8:51 AM)
Low55 °F (Aug 15, 5:51 AM)36% (Aug 15, 3:51 PM)29.66 "Hg (Aug 19, 3:51 PM)
Average73 °F69%29.93 "Hg
* Reported Aug 7 3:51 AM — Aug 22 3:51 AM, Chicago, Weather by CustomWeather, © 2014

Note: Actual official high and low records may vary slightly from our data, if they occured in-between our weather recording intervals... More about our weather records

Advertising

Chicago weather history for previous 24 hours

 ConditionsComfort  
Time TempWeatherWind HumidityBarometerVisibility
3:51 AM
Aug 22
74 °FRain. Fog.7 mph97%29.88 "Hg2 mi
2:58 AM75 °FStrong thunderstorms. Fog.No wind96%29.93 "Hg1 mi
2:02 AM75 °FStrong thunderstorms. Fog.6 mph94%29.92 "Hg1 mi
1:51 AM75 °FThunderstorms. Fog.10 mph90%29.88 "Hg2 mi
12:51 AM76 °FOvercast.8 mph91%29.88 "Hg10 mi
11:51 PM
Aug 21
77 °FMostly cloudy.No wind88%29.91 "Hg10 mi
10:51 PM77 °FOvercast.3 mph88%29.92 "Hg10 mi
9:51 PM77 °FPassing clouds.5 mph88%29.90 "Hg10 mi
8:51 PM77 °FMostly cloudy.3 mph90%29.89 "Hg10 mi
7:51 PM77 °FMostly cloudy.6 mph90%29.88 "Hg9 mi
6:51 PM78 °FPartly sunny.8 mph87%29.87 "Hg10 mi
5:51 PM78 °FPartly sunny.9 mph90%29.88 "Hg7 mi
5:02 PM77 °FThunderstorms. Fog.7 mph94%29.94 "Hg4 mi
4:51 PM77 °FThunderstorms. Fog.7 mph94%29.91 "Hg1 mi
3:55 PM79 °FStrong thunderstorms. Mostly cloudy.9 mph84%29.94 "Hg1 mi
2:51 PM82 °FMostly cloudy.9 mph77%29.90 "Hg10 mi
1:51 PM80 °FMostly cloudy.3 mph81%29.93 "Hg10 mi
12:51 PM79 °FCloudy.8 mph79%29.92 "Hg10 mi
11:51 AM78 °FCloudy.8 mph84%29.92 "Hg10 mi
10:51 AM76 °FCloudy.9 mph88%29.90 "Hg10 mi
9:51 AM74 °FMostly cloudy.7 mph94%29.92 "Hg10 mi
8:51 AM74 °FRain. Fog.7 mph97%29.95 "Hg4 mi
7:51 AM73 °FThunderstorms. Fog.15 mph90%29.96 "Hg3 mi
6:51 AM72 °FThunderstorms. Overcast.5 mph93%29.90 "Hg10 mi
5:51 AM72 °FThunderstorms. Overcast.No wind91%29.90 "Hg7 mi
Weather by CustomWeather, © 2014

See weather overviewHow to use our weather pages